Location: Detroit
(42.3310°N, 83.0460°W)
Time: 00:10:50
(UTC-05:00)

Cosmos 791 Rocket - Visible Passes

Search period start: 27 February 2024 00:00
Search period end: 08 March 2024 00:00
Orbit: 1483 x 1694 km, 74.1° (Epoch: 26 February)

Date Brightness Start Highest point End Pass type
(mag) Time Alt. Az. Time Alt. Az. Time Alt. Az.
27 Feb 8.5 02:34:35 23° E 02:35:21 23° E 02:41:45 10° NE visible
27 Feb 6.7 04:32:38 57° SW 04:34:45 76° WNW 04:43:34 10° NNE visible
27 Feb 8.1 06:30:56 10° W 06:36:49 19° NW 06:42:43 10° N visible
28 Feb 8.7 02:11:06 18° E 02:11:09 18° E 02:16:33 10° NE visible
28 Feb 6.7 04:09:08 73° SSW 04:10:14 90° SW 04:19:04 10° NNE visible
28 Feb 7.9 06:07:11 15° W 06:11:55 23° NW 06:18:32 10° N visible
29 Feb 8.9 01:47:31 14° E 01:47:31 14° E 01:50:53 10° ENE visible
29 Feb 6.8 03:45:33 76° ESE 03:45:47 76° ESE 03:54:32 10° NNE visible
29 Feb 7.8 05:43:35 21° W 05:47:04 27° NW 05:54:16 10° N visible
01 Mar 7.1 03:21:54 62° E 03:21:54 62° E 03:29:58 10° NNE visible
01 Mar 7.5 05:19:55 29° W 05:22:17 32° NW 05:29:58 10° N visible
02 Mar 7.5 02:58:11 48° ENE 02:58:11 48° ENE 03:05:20 10° NNE visible
02 Mar 7.3 04:56:13 37° WNW 04:57:33 39° WNW 05:05:38 10° N visible
03 Mar 7.9 02:34:25 38° ENE 02:34:25 38° ENE 02:40:39 10° NNE visible
03 Mar 7.1 04:32:26 46° WNW 04:32:52 46° WNW 04:41:16 10° NNE visible
03 Mar 8.5 06:33:21 10° NW 06:36:09 12° NNW 06:38:57 10° NNW visible
04 Mar 8.2 02:10:36 30° ENE 02:10:36 30° ENE 02:15:52 10° NE visible
04 Mar 7.0 04:08:37 55° NW 04:08:37 55° NW 04:16:51 10° NNE visible
04 Mar 8.4 06:06:51 10° WNW 06:11:04 14° NW 06:15:17 10° N visible
05 Mar 8.5 01:46:45 23° ENE 01:46:45 23° ENE 01:50:58 10° NE visible
05 Mar 7.0 03:44:46 62° NNW 03:44:46 62° NNW 03:52:25 10° NNE visible
05 Mar 8.3 05:42:47 14° WNW 05:46:02 17° NW 05:51:19 10° N visible
06 Mar 8.7 01:22:52 18° ENE 01:22:52 18° ENE 01:25:56 10° NE visible
06 Mar 7.1 03:20:53 61° N 03:20:53 61° N 03:27:57 10° NNE visible
06 Mar 8.1 05:18:53 18° WNW 05:21:05 20° NW 05:27:11 10° N visible
07 Mar 8.9 00:58:57 13° ENE 00:58:57 13° ENE 01:00:37 10° NE visible
07 Mar 7.3 02:56:58 55° NNE 02:56:58 55° NNE 03:03:26 10° NNE visible
07 Mar 7.9 04:54:58 23° WNW 04:56:11 24° NW 05:02:59 10° N visible
